Location: Unspecified
(0.0000°N, 0.0000°E)
Time: 16:44:21

Envisat - Pass Details

Date: 10 March 2018
Orbit: 764 x 766 km, 98.2° (Epoch: 19 March)

Event Time Altitude Azimuth Distance (km) Brightness Sun altitude
Rises 19:49:14 0° 166° (SSE) 3,230 6.1 -24.7°
Enters shadow 19:50:51 - 166° (SSE) 2,577 5.6 -25.1°
Exits shadow 19:58:20 43° 356° (N) 1,066 3.6 -27.0°
Drops below altitude 10° 20:01:40 10° 351° (N) 2,291 5.5 -27.8°
Sets 20:03:58 0° 350° (N) 3,214 6.3 -28.4°
